CW4489 Marathon FL US current weather conditions

sailwx.info

Wind from 142 at 2 knots gusting 8

Air temperature 27.8° C
Dewpoint 25.0° C

Last reported at 2014-Nov-23 20:50 UTC.
Time now 2014-Nov-23 21:14 UTC

Location: N 24°44' W 081°02'.
View on Google Maps.

See reports from other nearby stations

  
Tides and Currents Weather Stations Pressure Air Temp Water Temp Dewpoint Dewpoint Depression Visibility Wind Speed Wind Dir Waves Ship Positions
date/time (UTC)wind fromknots sea level pressurealtimeterstation pressurevisibilityair tempwater tempwave heightnotes
2014-Nov-23 20:50 142 2 gusting 8 27.8
2014-Nov-23 20:10 138 2 gusting 8 28.3
2014-Nov-23 20:00 126 4 gusting 6 28.3
2014-Nov-23 19:40 122 2 gusting 8 28.3
2014-Nov-23 19:30 116 2 gusting 8 28.3
2014-Nov-23 18:30 115 2 gusting 8 28.3
2014-Nov-23 18:10 134 5 gusting 7 28.9
2014-Nov-23 18:00 117 1 gusting 8 28.3
2014-Nov-23 17:50 133 2 gusting 8 28.3
2014-Nov-23 17:30 139 0 gusting 8 28.9
2014-Nov-23 17:00 144 4 gusting 9 28.3
2014-Nov-23 16:50 121 7 gusting 8 28.3
2014-Nov-23 16:30 144 6 gusting 8 28.3
2014-Nov-23 16:20 137 6 gusting 8 28.3
2014-Nov-23 16:00 153 3 gusting 10 28.3
2014-Nov-23 15:30 144 6 gusting 8 28.3
2014-Nov-23 15:20 119 5 gusting 11 28.3
2014-Nov-23 14:50 142 5 gusting 8 27.8
2014-Nov-23 13:50 180 6 gusting 9 27.2
2014-Nov-23 13:30 102 2 gusting 7 26.7
2014-Nov-23 13:20 116 5 gusting 7 26.7
2014-Nov-23 13:00 130 3 gusting 8 26.7
2014-Nov-23 12:40 121 2 gusting 10 26.1
2014-Nov-23 12:30 120 5 gusting 7 26.1
2014-Nov-23 12:20 109 3 gusting 8 26.1
2014-Nov-23 11:40 090 3 gusting 8 25.6
2014-Nov-23 11:30 123 3 gusting 7 25.6
2014-Nov-23 11:20 153 2 gusting 6 25.6
2014-Nov-23 11:00 132 2 gusting 7 25.6
2014-Nov-23 10:50 130 2 gusting 7 25.6
2014-Nov-23 10:30 120 2 gusting 8 25.6
2014-Nov-23 10:10 116 2 gusting 6 25.6
2014-Nov-23 10:00 138 5 gusting 6 25.6
2014-Nov-23 09:30 140 3 gusting 8 25.6
2014-Nov-23 09:00 115 2 gusting 8 25.6
2014-Nov-23 08:30 101 1 gusting 8 25.6
2014-Nov-23 08:20 121 5 gusting 6 25.6
2014-Nov-23 07:40 143 5 gusting 8 25.6
2014-Nov-23 07:30 107 3 gusting 9 25.6
2014-Nov-23 07:10 113 6 gusting 9 25.6
2014-Nov-23 07:00 111 2 gusting 8 25.6
2014-Nov-23 06:50 091 3 gusting 7 25.6
2014-Nov-23 06:20 080 3 gusting 10 25.6
2014-Nov-23 06:00 184 1 gusting 10 25.6
2014-Nov-23 05:50 105 7 gusting 11 25.6
2014-Nov-23 05:20 083 4 gusting 8 25.6
2014-Nov-23 04:50 076 1 gusting 8 25.0
2014-Nov-23 04:10 131 0 gusting 7 25.0
2014-Nov-23 04:00 108 1 gusting 6 25.0
2014-Nov-23 03:30 083 4 gusting 6 25.0
2014-Nov-23 03:20 114 25.0
2014-Nov-23 03:00 055 1 gusting 6 25.0
2014-Nov-23 02:50 142 2 gusting 8 25.0
2014-Nov-23 02:30 100 3 gusting 6 25.0
2014-Nov-23 02:10 080 0 gusting 6 25.0
2014-Nov-23 01:30 144 1 gusting 6 25.0
2014-Nov-23 01:20 064 7 gusting 7 25.0
2014-Nov-23 01:00 105 2 gusting 7 25.0
2014-Nov-23 00:50 073 2 gusting 10 25.0
2014-Nov-23 00:30 088 3 gusting 6 25.0
2014-Nov-23 00:20 096 1 gusting 6 25.0
2014-Nov-22 23:40 095 2 gusting 6 25.0
2014-Nov-22 23:30 106 2 gusting 7 25.0
2014-Nov-22 23:10 075 1 gusting 7 24.4
2014-Nov-22 23:00 076 1 gusting 8 24.4
2014-Nov-22 22:50 068 1 gusting 6 24.4
2014-Nov-22 22:20 076 2 gusting 6 25.0
2014-Nov-22 22:00 107 1 gusting 8 25.0
2014-Nov-22 21:50 094 2 gusting 6 25.6
2014-Nov-22 21:30 060 2 gusting 7 25.6
2014-Nov-22 21:00 015 1 gusting 10 25.6
2014-Nov-22 20:40 082 1 gusting 7 26.1
2014-Nov-22 20:30 056 3 gusting 6 26.1
2014-Nov-22 20:20 073 1 gusting 7 26.1
2014-Nov-22 19:50 086 0 gusting 7 26.1
2014-Nov-22 19:40 119 7 gusting 8 26.1
2014-Nov-22 19:30 057 1 gusting 7 26.1
2014-Nov-22 19:20 076 5 gusting 10 26.1
2014-Nov-22 18:50 082 4 gusting 11 26.1
2014-Nov-22 18:30 078 3 gusting 6 26.7
2014-Nov-22 18:10 066 2 gusting 10 26.7
2014-Nov-22 18:00 088 4 gusting 11 26.7
2014-Nov-22 17:50 094 3 gusting 8 27.2
2014-Nov-22 17:30 068 3 gusting 7 26.7
2014-Nov-22 17:20 091 1 gusting 7 26.7
2014-Nov-22 17:00 129 4 gusting 7 27.2
2014-Nov-22 16:50 052 3 gusting 8 27.2
2014-Nov-22 16:30 049 0 gusting 6 26.7
2014-Nov-22 16:20 101 3 gusting 6 26.1
2014-Nov-22 15:50 079 1 gusting 8 26.1
2014-Nov-22 15:30 089 0 gusting 7 26.1
2014-Nov-22 15:20 060 1 gusting 8 26.1
2014-Nov-22 15:00 128 4 gusting 9 26.1
2014-Nov-22 14:50 082 3 gusting 10 26.1
2014-Nov-22 14:30 161 2 gusting 8 25.6
2014-Nov-22 14:20 085 3 gusting 9 25.6
2014-Nov-22 13:30 082 7 gusting 9 25.6
2014-Nov-22 13:20 106 2 gusting 8 25.0
2014-Nov-22 13:00 053 5 gusting 6 25.0
2014-Nov-22 12:50 094 3 gusting 9 25.0
2014-Nov-22 12:30 094 2 gusting 8 25.0
2014-Nov-22 12:20 106 1 gusting 6 25.0
2014-Nov-22 12:00 103 1 gusting 9 25.0
2014-Nov-22 11:50 084 5 gusting 6 25.0
2014-Nov-22 11:30 061 1 gusting 6 24.4
2014-Nov-22 11:20 067 2 gusting 7 24.4
2014-Nov-22 11:00 061 6 gusting 7 24.4
2014-Nov-22 10:40 053 0 gusting 12 24.4
2014-Nov-22 10:30 087 3 gusting 7 24.4
2014-Nov-22 10:20 083 3 gusting 8 24.4
2014-Nov-22 09:40 083 0 gusting 6 24.4
2014-Nov-22 09:30 050 3 gusting 6 24.4
2014-Nov-22 09:20 049 3 gusting 9 24.4
2014-Nov-22 08:50 074 3 gusting 7 24.4
2014-Nov-22 08:20 061 2 gusting 7 24.4
2014-Nov-22 08:00 088 6 gusting 9 24.4
2014-Nov-22 07:50 101 1 gusting 6 24.4
2014-Nov-22 07:30 067 3 gusting 9 24.4
2014-Nov-22 07:10 057 2 gusting 6 24.4
2014-Nov-22 07:00 078 5 gusting 7 24.4
2014-Nov-22 06:50 061 2 gusting 6 24.4
2014-Nov-22 06:30 082 4 gusting 8 24.4
2014-Nov-22 06:20 072 2 gusting 8 24.4
2014-Nov-22 06:00 089 1 gusting 8 24.4
2014-Nov-22 05:40 074 2 gusting 11 24.4
2014-Nov-22 04:50 078 5 gusting 9 23.9
2014-Nov-22 04:30 076 2 gusting 8 23.9
2014-Nov-22 04:20 040 2 gusting 10 23.9
2014-Nov-22 03:40 063 2 gusting 6 23.3
2014-Nov-22 03:20 063 2 gusting 8 23.3
2014-Nov-22 02:40 077 3 gusting 6 23.3
2014-Nov-22 02:30 055 2 gusting 7 22.8
2014-Nov-22 02:20 040 4 gusting 7 22.8
2014-Nov-22 02:00 076 2 gusting 9 22.8
2014-Nov-22 01:50 029 2 gusting 7 22.8
2014-Nov-22 01:30 069 6 gusting 6 22.8
2014-Nov-22 01:20 058 0 gusting 6 22.8
2014-Nov-22 01:00 059 6 gusting 9 22.2
2014-Nov-22 00:40 052 1 gusting 8 22.2
2014-Nov-22 00:30 076 2 gusting 8 22.2
2014-Nov-22 00:20 064 3 gusting 6 22.2
2014-Nov-22 00:00 029 3 gusting 8 22.2
2014-Nov-21 23:50 038 2 gusting 6 22.2
2014-Nov-21 23:30 063 2 gusting 10 22.2
2014-Nov-21 23:10 070 2 gusting 7 22.2
2014-Nov-21 23:00 041 3 gusting 10 22.2
2014-Nov-21 22:50 059 2 gusting 10 22.2
2014-Nov-21 22:30 005 4 gusting 9 22.2
2014-Nov-21 22:10 062 11 gusting 11 22.2
2014-Nov-21 22:00 074 5 gusting 13 22.2
2014-Nov-21 21:50 040 3 gusting 8 22.2
2014-Nov-21 21:30 046 5 gusting 8 22.2
2014-Nov-21 21:20 043 3 gusting 9 22.2